TimeMDT,TemperatureF,Dew PointF,Humidity,Sea Level PressureIn,VisibilityMPH,Wind Direction,Wind SpeedMPH,Gust SpeedMPH,PrecipitationIn,Events,Conditions,WindDirDegrees,DateUTC
12:15 AM,44.6,39.2,81,30.12,10.0,ESE,4.6,-,N/A,,Clear,120,2013-04-03 06:15:00
12:35 AM,42.8,37.4,81,30.12,10.0,Calm,Calm,-,N/A,,Clear,0,2013-04-03 06:35:00
12:55 AM,42.8,37.4,81,30.13,10.0,SSE,3.5,-,N/A,,Partly Cloudy,160,2013-04-03 06:55:00
1:15 AM,42.8,39.2,87,30.13,10.0,Calm,Calm,-,N/A,,Partly Cloudy,0,2013-04-03 07:15:00
1:35 AM,42.8,39.2,87,30.14,10.0,ENE,4.6,-,N/A,,Clear,70,2013-04-03 07:35:00
1:55 AM,41.0,37.4,87,30.14,10.0,Calm,Calm,-,N/A,,Clear,0,2013-04-03 07:55:00
2:15 AM,41.0,37.4,87,30.14,10.0,Calm,Calm,-,N/A,,Clear,0,2013-04-03 08:15:00
2:35 AM,41.0,37.4,87,30.14,10.0,Calm,Calm,-,N/A,,Clear,0,2013-04-03 08:35:00
2:55 AM,39.2,37.4,93,30.14,10.0,Calm,Calm,-,N/A,,Clear,0,2013-04-03 08:55:00
3:15 AM,39.2,35.6,87,30.15,10.0,Calm,Calm,-,N/A,,Clear,0,2013-04-03 09:15:00
3:35 AM,39.2,35.6,87,30.15,10.0,Calm,Calm,-,N/A,,Clear,0,2013-04-03 09:35:00
3:55 AM,39.2,37.4,93,30.15,10.0,ESE,4.6,-,N/A,,Clear,120,2013-04-03 09:55:00
4:15 AM,39.2,33.8,81,30.15,10.0,ESE,5.8,-,N/A,,Clear,120,2013-04-03 10:15:00
4:35 AM,37.4,33.8,87,30.15,10.0,ESE,5.8,-,N/A,,Clear,110,2013-04-03 10:35:00
4:55 AM,37.4,33.8,87,30.16,10.0,East,3.5,-,N/A,,Clear,90,2013-04-03 10:55:00
5:15 AM,39.2,35.6,87,30.16,10.0,Calm,Calm,-,N/A,,Clear,0,2013-04-03 11:15:00
5:35 AM,39.2,35.6,87,30.17,10.0,Calm,Calm,-,N/A,,Clear,0,2013-04-03 11:35:00
5:55 AM,39.2,35.6,87,30.17,10.0,South,3.5,-,N/A,,Clear,180,2013-04-03 11:55:00
6:15 AM,39.2,33.8,81,30.18,10.0,SSE,5.8,-,N/A,,Clear,160,2013-04-03 12:15:00
6:35 AM,37.4,32.0,81,30.19,10.0,SE,8.1,-,N/A,,Clear,140,2013-04-03 12:35:00
6:50 AM,35.6,33.8,93,30.19,15.0,North,-9999.0,-,N/A,,Partly Cloudy,0,2013-04-03 12:50:00
7:50 AM,37.4,35.6,93,30.21,15.0,North,-9999.0,-,N/A,,Partly Cloudy,0,2013-04-03 13:50:00
8:50 AM,44.6,37.4,76,30.22,15.0,ESE,9.2,-,N/A,,Partly Cloudy,120,2013-04-03 14:50:00
9:50 AM,50.0,39.2,66,30.23,15.0,Variable,5.8,-,N/A,,Partly Cloudy,0,2013-04-03 15:50:00
10:50 AM,51.8,41.0,67,30.23,15.0,Variable,4.6,-,N/A,,Partly Cloudy,0,2013-04-03 16:50:00
11:50 AM,53.6,41.0,62,30.23,15.0,Variable,4.6,-,N/A,,Partly Cloudy,0,2013-04-03 17:50:00
12:50 PM,55.4,42.8,63,30.21,15.0,Variable,5.8,-,N/A,,Partly Cloudy,0,2013-04-03 18:50:00
1:50 PM,57.2,35.6,44,30.20,15.0,Calm,Calm,-,N/A,,Scattered Clouds,0,2013-04-03 19:50:00
2:50 PM,60.8,37.4,42,30.19,15.0,Variable,4.6,-,N/A,,Scattered Clouds,0,2013-04-03 20:50:00
3:47 PM,62.6,30.2,30,30.17,15.0,Variable,4.6,-,N/A,,Scattered Clouds,0,2013-04-03 21:47:00
4:58 PM,62.6,28.4,27,30.15,15.0,Calm,Calm,-,N/A,,Scattered Clouds,0,2013-04-03 22:58:00
5:46 PM,62.6,28.4,27,30.14,10.0,Calm,Calm,-,N/A,,Scattered Clouds,0,2013-04-03 23:46:00
6:58 PM,60.8,33.8,36,30.15,15.0,Variable,3.5,-,N/A,,Scattered Clouds,0,2013-04-04 00:58:00
7:47 PM,59.0,44.6,59,30.15,15.0,Variable,3.5,-,N/A,,Scattered Clouds,0,2013-04-04 01:47:00
8:50 PM,57.2,39.2,51,30.17,15.0,Variable,3.5,-,N/A,,Scattered Clouds,0,2013-04-04 02:50:00
8:55 PM,57.2,39.2,51,30.17,10.0,WSW,5.8,-,N/A,,Scattered Clouds,240,2013-04-04 02:55:00
9:15 PM,51.8,39.2,62,30.17,10.0,NNE,4.6,-,N/A,,Clear,30,2013-04-04 03:15:00
9:35 PM,53.6,42.8,67,30.17,10.0,Calm,Calm,-,N/A,,Clear,0,2013-04-04 03:35:00
9:55 PM,51.8,41.0,67,30.17,10.0,South,4.6,-,N/A,,Clear,170,2013-04-04 03:55:00
10:15 PM,48.2,37.4,66,30.18,10.0,South,5.8,-,N/A,,Clear,180,2013-04-04 04:15:00
10:35 PM,50.0,39.2,66,30.18,10.0,SE,5.8,-,N/A,,Clear,140,2013-04-04 04:35:00
10:55 PM,48.2,39.2,71,30.18,10.0,Calm,Calm,-,N/A,,Clear,0,2013-04-04 04:55:00
11:15 PM,50.0,37.4,62,30.17,10.0,SE,3.5,-,N/A,,Clear,130,2013-04-04 05:15:00
11:35 PM,48.2,37.4,66,30.17,10.0,SE,8.1,-,N/A,,Clear,130,2013-04-04 05:35:00
11:55 PM,48.2,37.4,66,30.17,10.0,SE,6.9,-,N/A,,Clear,140,2013-04-04 05:55:00